Location: East La Mirada
(33.9245°N, 117.9890°W)
Time: 17:00:02
(UTC+00:00)

Daily predictions for brighter satellites

Satellite Brightness Start Highest point End
(mag) Time Altitude Azimuth Time Altitude Azimuth Time Altitude Azimuth
USA 234 4.0 12:00:51 10° NE 12:05:06 40° NNE 12:05:06 40° NNE
COBE Rocket 4.4 12:17:23 10° SSE 12:22:10 56° ENE 12:22:31 54° ENE
Aureole 1 Rocket 4.3 12:29:55 53° SW 12:29:55 53° SW 12:36:18 10° S
Cosmos 1190 Rocket 4.2 12:30:36 54° NNE 12:31:36 68° ENE 12:36:48 10° SSE
Okean O Rocket 4.3 12:30:27 10° NE 12:33:36 19° E 12:36:45 10° SE
Centaur AC-42 4.4 12:32:18 19° SSW 12:36:57 38° SSE 21:43:39 10° SE
CZ-4C R/B 3.0 12:34:21 36° NNW 12:38:03 84° ENE 12:46:30 10° SSE
FALCON 9 R/B 3.1 12:36:12 51° W 12:38:28 88° N 13:01:07 10° E
Cosmos 2242 Rocket 3.8 12:38:51 56° NNE 12:39:38 68° E 12:44:04 10° SSE
Cosmos 1420 Rocket 3.9 12:37:19 10° SSW 12:42:31 82° ESE 12:47:43 10° NNE
SL-16 R/B 2.8 12:51:28 38° SW 12:51:28 38° SW 12:55:52 10° S
Nadezhda 4 Rocket 3.8 12:49:39 16° NNW 12:54:45 73° W 13:00:50 10° S
Cosmos 1603 4.3 12:52:46 15° N 12:57:25 57° ENE 13:02:59 10° SE
Orbus 7S? 3.6 12:55:59 10° SSW 12:59:59 51° SE 13:02:31 10° NE
ALOS 2.8 12:56:05 10° NNE 13:00:43 60° E 13:05:19 10° S
Cosmos 614 Rocket 4.1 13:00:32 48° W 13:00:50 48° WSW 13:05:44 10° S
SKYMED 2 4.0 12:58:27 10° SSE 13:02:43 61° ENE 13:06:51 11° N
Timation 1 Rocket 4.2 13:03:35 10° SSW 13:09:30 72° WNW 13:15:28 10° NNE
Cosmos 1452 Rocket 3.4 13:05:25 10° SSW 13:10:39 69° WNW 13:15:56 10° NNE
Cosmos 1484 Rocket 2.8 13:11:41 47° NW 13:12:09 50° WNW 13:15:52 10° SSW
Cosmos 1461 2.9 13:12:25 31° NNW 13:14:26 87° ENE 13:18:54 10° SSE
Lacrosse 5 3.7 13:17:22 15° SW 13:17:22 15° SW 13:19:29 10° SSW
Cosmos 2026 Rocket 4.2 13:10:28 10° N 13:16:40 73° E 13:22:56 10° SSE
Cosmos 1140 Rocket 3.6 13:15:01 27° NW 13:17:42 54° WSW 13:22:46 10° S
Helios 1A Rocket 3.5 13:15:09 10° NNE 13:19:08 58° E 13:23:05 10° S
Okean 1-7 2.9 13:15:45 10° N 13:20:10 87° W 13:24:32 10° S
Cosmos 407 Rocket 4.2 13:19:09 30° WNW 13:20:18 34° W 13:25:03 10° SSW
Cosmos 2279 Rocket 4.3 13:14:55 10° S 13:21:02 67° E 13:27:11 10° NNE
PSLV R/B 4.3 13:18:29 10° N 13:22:22 41° WNW 13:26:13 10° SW
Meteor 1-20 Rocket 4.3 13:17:16 10° SSW 13:22:58 55° W 13:28:43 10° N
NOAA 6 4.1 13:22:36 10° NNE 13:27:44 80° ESE 13:32:51 10° S
Cosmos 2263 Rocket 2.6 13:23:56 10° SW 13:29:05 38° WNW 13:34:16 10° N
Cosmos 1634 Rocket 4.0 13:23:24 10° SSW 13:29:30 60° W 13:35:38 10° N
Cosmos 2084 Rocket 3.7 13:31:26 24° NW 13:33:48 51° WSW 13:38:02 10° SSE
CZ-4B DEB 4.3 13:30:44 10° N 13:36:08 56° WNW 13:41:31 10° SSW
DELTA 2 R/B(2) 3.6 13:39:20 37° SSW 13:39:20 37° SSW 13:40:58 10° SE
FALCON 9 DEB 3.3 13:40:30 22° NNW 13:41:37 37° NE 13:43:49 10° ESE
Cosmos 1346 Rocket 2.7 13:39:55 10° SSW 13:43:42 56° W 13:47:31 10° N
USA 116 4.0 13:43:01 10° S 13:47:11 68° W 13:51:56 10° NNW
FALCON 9 DEB 2.8 13:47:03 20° NNW 13:48:26 49° NE 13:50:44 10° ESE
Meteor 1-18 Rocket 4.2 13:43:48 10° NNW 13:49:17 64° W 13:54:48 10° S
GEOS 3 Rocket 3.8 13:45:25 10° SSE 13:50:22 54° WSW 13:55:22 10° NW
COSMO-SKYMED 1 3.2 13:46:47 10° SSW 13:50:43 34° W 13:54:41 10° NNW
H-2A R/B 3.9 13:47:44 10° NNE 13:51:22 47° E 13:55:02 10° S
STARLINK 1027 3.9 13:51:00 12° NNW 13:53:28 37° NE 13:56:13 10° ESE
STARLINK 1028 3.9 13:51:14 12° NNW 13:53:41 38° NE 13:56:26 10° ESE
STARLINK 1021 3.8 13:51:27 12° NNW 13:53:55 38° NE 13:56:40 10° ESE
STARLINK 1019 3.8 13:51:37 12° NNW 13:54:08 38° NE 13:56:55 10° ESE
STARLINK 1012 3.8 13:51:52 12° NNW 13:54:21 38° NE 13:57:07 10° ESE
STARLINK 1010 3.8 13:52:05 12° NNW 13:54:34 39° NE 13:57:20 10° ESE
STARLINK 1026 3.8 13:52:19 12° NNW 13:54:49 39° NE 13:57:34 10° ESE
STARLINK 1013 3.8 13:52:32 12° NNW 13:55:02 39° NE 13:57:48 10° ESE
STARLINK 1009 3.8 13:52:44 12° NNW 13:55:15 39° NE 13:58:01 10° ESE
STARLINK 1015 3.8 13:52:56 12° NNW 13:55:28 40° NE 13:58:15 10° ESE
STARLINK 1016 3.7 13:53:10 12° NNW 13:55:42 40° NE 13:58:29 10° ESE
STARLINK 1008 3.7 13:53:24 12° NNW 13:55:56 40° NE 13:58:43 10° ESE
STARLINK 1014 3.7 13:53:36 12° NNW 13:56:09 40° NE 13:58:55 10° ESE
STARLINK 1025 3.7 13:53:49 12° NNW 13:56:23 41° NE 13:59:09 10° ESE
STARLINK 1017 3.7 13:54:03 12° NNW 13:56:37 41° NE 13:59:24 10° ESE
STARLINK 1034 3.7 13:54:11 12° NNW 13:56:49 41° NE 13:59:38 10° ESE
STARLINK 1023 3.7 13:54:15 12° NNW 13:56:50 41° NE 13:59:37 10° ESE
STARLINK 1007 3.7 13:54:28 12° NNW 13:57:03 41° NE 13:59:51 10° ESE
STARLINK 1048 3.7 13:54:41 11° NNW 13:57:17 42° NE 14:00:04 10° ESE
FENGYUN 3A 4.1 13:52:25 10° N 13:57:22 39° WNW 14:02:19 10° SW
STARLINK 1052 3.7 13:54:48 11° NNW 13:57:25 42° NE 14:00:13 10° ESE
STARLINK 1049 3.7 13:54:54 11° NNW 13:57:30 42° NE 14:00:18 10° ESE
STARLINK 1051 3.7 13:55:06 11° NNW 13:57:44 42° NE 14:00:33 10° ESE
STARLINK 1037 3.6 13:55:20 11° NNW 13:57:57 42° NE 14:00:45 10° ESE
STARLINK 1059 3.6 13:55:32 11° NNW 13:58:11 43° NE 14:01:00 10° ESE
STARLINK 1057 3.6 13:55:45 11° NNW 13:58:25 43° NE 14:01:13 10° ESE
Cosmos 2221 Rocket 3.5 13:54:12 10° N 13:58:37 79° W 14:03:01 10° S
STARLINK 1068 3.6 13:56:12 11° NNW 13:58:52 44° NE 14:01:41 10° ESE
STARLINK 1029 3.6 13:56:26 11° NNW 13:59:06 44° NE 14:01:54 10° ESE
STARLINK 1060 3.6 13:56:38 11° NNW 13:59:18 44° NE 14:02:07 10° ESE
STARLINK 1030 3.6 13:56:49 11° NNW 13:59:32 45° NE 14:02:23 10° ESE
STARLINK 1020 3.5 13:57:04 11° NNW 13:59:45 45° NE 14:02:35 10° ESE
STARLINK 1040 3.4 13:57:06 11° NNW 13:59:47 49° NE 14:02:38 10° ESE
Cosmos 1331 Rocket 3.9 13:54:43 10° SSW 13:59:51 82° WNW 14:05:02 10° NNE
STARLINK 1033 3.5 13:57:43 11° NNW 14:00:26 46° NE 14:03:16 10° ESE
STARLINK 1031 3.5 13:57:56 11° NNW 14:00:39 46° NE 14:03:29 10° ESE
STARLINK 1024 3.5 13:58:07 11° NNW 14:00:53 47° NE 14:03:45 10° ESE
STARLINK 1035 3.5 13:58:21 11° NNW 14:01:07 47° NE 14:03:56 10° ESE
SJ-7 4.4 13:57:16 10° N 14:01:11 54° WNW 14:05:03 10° SSW
STARLINK 1032 3.5 13:58:35 11° NNW 14:01:20 47° NE 14:04:10 10° ESE
STARLINK 1011 3.5 13:58:45 11° NNW 14:01:33 48° NE 14:04:25 10° ESE
STARLINK 1036 3.4 13:59:01 11° NNW 14:01:47 48° NE 14:04:37 10° ESE
Cosmos 1844 Rocket 2.9 13:56:26 10° SSW 14:02:01 77° ESE 14:07:36 10° NNE
STARLINK 1047 3.4 13:59:26 10° NNW 14:02:14 48° NE 14:05:04 10° ESE
Cosmos 332 Rocket 3.8 13:57:25 10° SSW 14:02:19 87° WNW 14:07:15 10° NNE
CZ-4B R/B 3.5 13:59:37 10° N 14:04:59 48° WNW 14:10:23 10° SW
Meteor 1-11 Rocket 4.1 13:59:38 10° S 14:05:17 73° E 14:11:06 10° NNE
Okean O Rocket 2.4 14:06:05 10° N 14:09:56 30° WNW 14:13:47 10° SW
Cosmos 1733 Rocket 3.0 14:06:16 10° SSW 14:10:32 66° W 14:14:50 10° N
Okean 3 3.4 14:07:34 10° N 14:11:45 72° W 14:15:56 10° S
Cosmos 1110 Rocket 4.1 14:07:05 10° SSW 14:12:09 54° WNW 14:17:14 10° N
Cosmos 1340 4.0 14:10:33 10° WSW 14:13:20 20° WNW 14:16:08 10° NNW
Cosmos 1500 3.2 14:13:25 10° SSW 14:17:12 58° W 14:20:59 10° N
Cosmos 1943 3.9 14:14:18 10° NW 14:19:22 35° WSW 14:24:24 10° SSW
